Rockford, IL

6:37 PM CST on December 10, 2017 (GMT -0600)
Greater Rockford

Weather History for KRFD - July, 2014

Change the Weather History Date:

Thursday, July 3, 2014

  Actual Average Record
Temperature  
Mean Temperature 67 °F 74 °F  
Max Temperature 76 °F 85 °F 99 °F (1925)
Min Temperature 57 °F 63 °F 45 °F (1924)
Degree Days  
Heating Degree Days 0 0  
Month to date heating degree days 3 0  
Since 1 June heating degree days 14 31  
Since 1 July heating degree days 3 0  
Cooling Degree Days 2 9  
Month to date cooling degree days 9 27  
Year to date cooling degree days 287 257  
Since 1 June cooling degree days 204 202  
Growing Degree Days 16 (Base 50)    
Moisture  
Dew Point 53 °F    
Average Humidity 68    
Maximum Humidity 100    
Minimum Humidity 35    
Precipitation  
Precipitation 0.00 in 0.13 in 1.55 in (1903)
Month to date precipitation 0.09 0.37  
Year to date precipitation 18.12 17.49  
Snow  
Snow 0.00 in 0.00 in 0.00 in ()
Month to date snowfall 0.0 0.0  
Since 1 June snowfall 0.0 0.0  
Since 1 July snowfall 0.0 0.0  
Snow Depth 0.00 in    
Sea Level Pressure  
Sea Level Pressure 30.14 in    
Wind  
Wind Speed 6 mph (West)    
Max Wind Speed 15 mph    
Max Gust Speed 22 mph    
Visibility 9 miles    
Events Fog    
T = Trace of Precipitation, MM = Missing Value Source: NWS Daily Summary

Daily Weather History Graph

Daily Weather History Graph

Search for Another Location

Airport or City:

Trip Planner

Search our weather history database for the weather conditions in past years. The results will help you decide how hot, cold, wet, or windy it might be!

Date:

Astronomy

Jul. 03, 2014 Rise Set
Actual Time 5:25 AM CDT 8:36 PM CDT
Civil Twilight 4:50 AM CDT 9:10 PM CDT
Nautical Twilight 4:06 AM CDT 9:54 PM CDT
Astronomical Twilight 3:13 AM CDT 10:47 PM CDT
Moon 11:31 AM CDT (7/3) 11:50 PM CDT (7/3)
Length of Visible Light 16h 19m
Length of Day
15h 11m
Waxing Crescent, 33% of the Moon is Illuminated
Jul 3
Waxing Crescent
Jul 5
First Quarter
Jul 12
Full
Jul 18
Last Quarter
Jul 26
New

Hourly Weather History & Observations

Time (CDT) Temp. Dew Point Humidity Pressure Visibility Wind Dir Wind Speed Gust Speed Precip Events Conditions
12:15 AM 60.1 °F 57.0 °F 90% 30.06 in 10.0 mi Calm Calm - 0.00 in   Overcast
12:43 AM 60.1 °F 57.0 °F 90% 30.07 in 10.0 mi NW 5.8 mph - 0.00 in   Overcast
12:54 AM 60.1 °F 57.0 °F 90% 30.07 in 10.0 mi WNW 5.8 mph - 0.00 in   Overcast
1:42 AM 60.1 °F 57.0 °F 90% 30.07 in 10.0 mi WNW 5.8 mph - N/A   Overcast
1:54 AM 60.1 °F 57.0 °F 90% 30.07 in 10.0 mi West 3.5 mph - N/A   Overcast
2:54 AM 59.0 °F 57.0 °F 93% 30.08 in 10.0 mi WNW 5.8 mph - N/A   Overcast
3:54 AM 57.9 °F 55.0 °F 90% 30.09 in 10.0 mi Calm Calm - N/A   Partly Cloudy
4:54 AM 57.0 °F 55.9 °F 96% 30.10 in 10.0 mi SSW 3.5 mph - N/A   Overcast
5:54 AM 57.0 °F 55.9 °F 96% 30.12 in 10.0 mi South 3.5 mph - N/A   Overcast
6:08 AM 57.0 °F 55.9 °F 96% 30.12 in 10.0 mi South 3.5 mph - N/A   Overcast
6:42 AM 57.9 °F 55.9 °F 93% 30.13 in 10.0 mi SW 3.5 mph - N/A Fog Shallow Fog
6:46 AM 57.9 °F 55.9 °F 93% 30.13 in 0.5 mi SSW 3.5 mph - N/A Fog Fog
6:54 AM 57.9 °F 57.0 °F 97% 30.14 in 0.5 mi SSW 4.6 mph - N/A Fog Fog
7:08 AM 57.9 °F 57.0 °F 97% 30.13 in 1.0 mi SSW 3.5 mph - N/A   Mostly Cloudy
7:16 AM 59.0 °F 57.0 °F 93% 30.13 in 10.0 mi SW 3.5 mph - N/A Fog Patches of Fog
7:26 AM 60.1 °F 57.9 °F 93% 30.14 in 10.0 mi Variable 3.5 mph - N/A   Scattered Clouds
7:54 AM 62.1 °F 55.9 °F 80% 30.14 in 10.0 mi West 6.9 mph - N/A   Scattered Clouds
8:54 AM 64.0 °F 57.0 °F 78% 30.14 in 10.0 mi West 4.6 mph - N/A   Partly Cloudy
9:54 AM 66.9 °F 55.9 °F 68% 30.14 in 10.0 mi West 6.9 mph - N/A   Partly Cloudy
10:54 AM 69.1 °F 51.1 °F 53% 30.15 in 10.0 mi NNW 12.7 mph - N/A   Partly Cloudy
11:54 AM 71.1 °F 43.0 °F 36% 30.16 in 10.0 mi NW 10.4 mph - N/A   Partly Cloudy
12:54 PM 72.0 °F 42.1 °F 34% 30.17 in 10.0 mi WNW 9.2 mph - N/A   Partly Cloudy
1:54 PM 73.9 °F 45.0 °F 35% 30.17 in 10.0 mi NNW 12.7 mph - N/A   Partly Cloudy
2:54 PM 73.0 °F 45.0 °F 37% 30.17 in 10.0 mi NNW 6.9 mph - N/A   Scattered Clouds
3:54 PM 72.0 °F 46.0 °F 40% 30.17 in 10.0 mi North 9.2 mph - N/A   Scattered Clouds
4:54 PM 73.9 °F 46.0 °F 37% 30.17 in 10.0 mi North 8.1 mph - N/A   Scattered Clouds
5:54 PM 75.0 °F 46.0 °F 36% 30.17 in 10.0 mi NNW 6.9 mph - N/A   Scattered Clouds
6:54 PM 73.9 °F 46.0 °F 37% 30.17 in 10.0 mi WNW 6.9 mph - N/A   Partly Cloudy
7:54 PM 71.1 °F 48.0 °F 44% 30.17 in 10.0 mi West 4.6 mph - N/A   Clear
8:54 PM 64.9 °F 55.9 °F 73% 30.20 in 10.0 mi West 3.5 mph - N/A   Clear
9:54 PM 64.0 °F 53.1 °F 67% 30.21 in 10.0 mi Calm Calm - N/A   Clear
10:54 PM 60.1 °F 54.0 °F 80% 30.22 in 10.0 mi South 3.5 mph - N/A   Clear
11:54 PM 60.1 °F 54.0 °F 80% 30.24 in 10.0 mi Calm Calm - N/A   Clear